Time,TemperatureF,DewpointF,PressureIn,WindDirection,WindDirectionDegrees,WindSpeedMPH,WindSpeedGustMPH,Humidity,HourlyPrecipIn,Conditions,Clouds,dailyrainin,SoftwareType,DateUTC
2013-04-21 00:00:00,40.3,29.4,29.92,SE,135,1.8,1.8,65,0.00,,,0.00,WUHU216HW,2013-04-21 05:00:00,
2013-04-21 00:05:00,40.3,29.4,29.92,SE,135,1.8,1.8,65,0.00,,,0.00,WUHU216HW,2013-04-21 05:05:00,
2013-04-21 00:30:00,40.5,29.3,29.92,ESE,113,2.7,2.7,64,0.00,,,0.00,WUHU216HW,2013-04-21 05:30:00,
2013-04-21 00:35:00,40.5,29.3,29.92,ESE,113,2.7,2.7,64,0.00,,,0.00,WUHU216HW,2013-04-21 05:35:00,
2013-04-21 01:00:00,40.7,29.1,29.92,SE,135,1.1,1.1,63,0.00,,,0.00,WUHU216HW,2013-04-21 06:00:00,
2013-04-21 01:05:00,40.7,29.1,29.92,SE,135,1.1,1.1,63,0.00,,,0.00,WUHU216HW,2013-04-21 06:05:00,
2013-04-21 01:30:00,40.5,29.3,29.93,SE,135,1.6,1.6,64,0.00,,,0.00,WUHU216HW,2013-04-21 06:30:00,
2013-04-21 01:35:00,40.5,29.3,29.93,SE,135,1.6,1.6,64,0.00,,,0.00,WUHU216HW,2013-04-21 06:35:00,
2013-04-21 02:00:00,40.0,29.1,29.93,ESE,113,1.3,1.3,65,0.00,,,0.00,WUHU216HW,2013-04-21 07:00:00,
2013-04-21 02:05:00,40.0,29.1,29.93,ESE,113,1.3,1.3,65,0.00,,,0.00,WUHU216HW,2013-04-21 07:05:00,
2013-04-21 02:30:00,39.6,28.7,29.93,NNE,23,2.0,2.0,65,0.00,,,0.00,WUHU216HW,2013-04-21 07:30:00,
2013-04-21 02:35:00,39.6,28.7,29.93,NNE,23,2.0,2.0,65,0.00,,,0.00,WUHU216HW,2013-04-21 07:35:00,
2013-04-21 03:00:00,39.4,28.5,29.93,NE,45,2.5,2.5,65,0.00,,,0.00,WUHU216HW,2013-04-21 08:00:00,
2013-04-21 03:05:00,39.4,28.5,29.93,NE,45,2.5,2.5,65,0.00,,,0.00,WUHU216HW,2013-04-21 08:05:00,
2013-04-21 03:30:00,39.2,28.0,29.93,SE,135,4.0,4.0,64,0.00,,,0.00,WUHU216HW,2013-04-21 08:30:00,
2013-04-21 03:35:00,39.2,28.0,29.93,SE,135,4.0,4.0,64,0.00,,,0.00,WUHU216HW,2013-04-21 08:35:00,
2013-04-21 04:00:00,39.2,28.4,29.94,ESE,113,1.8,1.8,65,0.00,,,0.00,WUHU216HW,2013-04-21 09:00:00,
2013-04-21 04:05:00,39.2,28.4,29.94,ESE,113,1.8,1.8,65,0.00,,,0.00,WUHU216HW,2013-04-21 09:05:00,
2013-04-21 04:30:00,39.2,28.4,29.94,SE,135,2.5,2.5,65,0.00,,,0.00,WUHU216HW,2013-04-21 09:30:00,
2013-04-21 04:35:00,39.2,28.4,29.94,SE,135,2.5,2.5,65,0.00,,,0.00,WUHU216HW,2013-04-21 09:35:00,
2013-04-21 05:00:00,39.2,28.7,29.94,SE,135,4.0,4.0,66,0.00,,,0.00,WUHU216HW,2013-04-21 10:00:00,
2013-04-21 05:05:00,39.2,28.7,29.94,SE,135,4.0,4.0,66,0.00,,,0.00,WUHU216HW,2013-04-21 10:05:00,
2013-04-21 05:30:00,38.9,29.2,29.95,ESE,113,2.5,2.5,68,0.00,,,0.00,WUHU216HW,2013-04-21 10:30:00,
2013-04-21 05:35:00,38.9,29.2,29.95,ESE,113,2.5,2.5,68,0.00,,,0.00,WUHU216HW,2013-04-21 10:35:00,
2013-04-21 06:00:00,38.7,29.3,29.96,ESE,113,1.6,1.6,69,0.00,,,0.00,WUHU216HW,2013-04-21 11:00:00,
2013-04-21 06:05:00,38.7,29.3,29.96,ESE,113,1.6,1.6,69,0.00,,,0.00,WUHU216HW,2013-04-21 11:05:00,
2013-04-21 06:10:00,38.7,29.3,29.96,ESE,113,1.6,1.6,69,0.00,,,0.00,WUHU216HW,2013-04-21 11:10:00,
2013-04-21 06:30:00,38.7,29.3,29.96,SSE,158,3.4,3.4,69,0.00,,,0.00,WUHU216HW,2013-04-21 11:30:00,
2013-04-21 06:35:00,38.7,29.3,29.96,SSE,158,3.4,3.4,69,0.00,,,0.00,WUHU216HW,2013-04-21 11:35:00,
2013-04-21 07:00:00,38.9,29.5,29.99,SE,135,2.5,2.5,69,0.00,,,0.00,WUHU216HW,2013-04-21 12:00:00,
2013-04-21 07:05:00,38.9,29.5,29.99,SE,135,2.5,2.5,69,0.00,,,0.00,WUHU216HW,2013-04-21 12:05:00,
2013-04-21 07:30:00,39.4,30.1,29.99,SE,135,2.7,2.7,69,0.00,,,0.00,WUHU216HW,2013-04-21 12:30:00,
2013-04-21 07:35:00,39.4,30.1,29.99,SE,135,2.7,2.7,69,0.00,,,0.00,WUHU216HW,2013-04-21 12:35:00,
2013-04-21 08:00:00,40.7,31.0,30.00,SSE,158,6.3,6.3,68,0.00,,,0.00,WUHU216HW,2013-04-21 13:00:00,
2013-04-21 08:05:00,40.7,31.0,30.00,SSE,158,6.3,6.3,68,0.00,,,0.00,WUHU216HW,2013-04-21 13:05:00,
2013-04-21 08:30:00,42.3,31.8,30.00,SSE,158,4.9,4.9,66,0.00,,,0.00,WUHU216HW,2013-04-21 13:30:00,
2013-04-21 08:35:00,42.3,31.8,30.00,SSE,158,4.9,4.9,66,0.00,,,0.00,WUHU216HW,2013-04-21 13:35:00,
2013-04-21 09:00:00,44.1,32.3,30.00,North,0,7.6,7.6,63,0.00,,,0.00,WUHU216HW,2013-04-21 14:00:00,
2013-04-21 09:05:00,44.1,32.3,30.00,North,0,7.6,7.6,63,0.00,,,0.00,WUHU216HW,2013-04-21 14:05:00,
2013-04-21 09:30:00,45.7,32.7,30.00,SSE,158,3.4,3.4,60,0.00,,,0.00,WUHU216HW,2013-04-21 14:30:00,
2013-04-21 09:35:00,45.7,32.7,30.00,SSE,158,3.4,3.4,60,0.00,,,0.00,WUHU216HW,2013-04-21 14:35:00,
2013-04-21 10:00:00,47.9,33.9,29.99,SE,135,6.3,6.3,58,0.00,,,0.00,WUHU216HW,2013-04-21 15:00:00,
2013-04-21 10:05:00,47.9,33.9,29.99,SE,135,6.3,6.3,58,0.00,,,0.00,WUHU216HW,2013-04-21 15:05:00,
2013-04-21 10:30:00,49.0,33.9,29.99,South,180,3.6,3.6,56,0.00,,,0.00,WUHU216HW,2013-04-21 15:30:00,
2013-04-21 10:35:00,49.0,33.9,29.99,South,180,3.6,3.6,56,0.00,,,0.00,WUHU216HW,2013-04-21 15:35:00,
2013-04-21 11:00:00,50.8,35.1,29.98,SSE,158,8.5,8.5,55,0.00,,,0.00,WUHU216HW,2013-04-21 16:00:00,
2013-04-21 11:05:00,50.8,35.1,29.98,SSE,158,8.5,8.5,55,0.00,,,0.00,WUHU216HW,2013-04-21 16:05:00,
2013-04-21 11:30:00,52.4,36.2,29.98,SSE,158,6.5,6.5,54,0.00,,,0.00,WUHU216HW,2013-04-21 16:30:00,
2013-04-21 11:35:00,52.4,36.2,29.98,SSE,158,6.5,6.5,54,0.00,,,0.00,WUHU216HW,2013-04-21 16:35:00,
2013-04-21 12:00:00,53.3,36.6,29.97,East,90,7.6,7.6,53,0.00,,,0.00,WUHU216HW,2013-04-21 17:00:00,
2013-04-21 12:05:00,53.3,36.6,29.97,East,90,7.6,7.6,53,0.00,,,0.00,WUHU216HW,2013-04-21 17:05:00,
2013-04-21 12:30:00,55.1,38.2,29.95,SE,135,7.6,7.6,53,0.00,,,0.00,WUHU216HW,2013-04-21 17:30:00,
2013-04-21 12:35:00,55.1,38.2,29.95,SE,135,7.6,7.6,53,0.00,,,0.00,WUHU216HW,2013-04-21 17:35:00,
2013-04-21 12:40:00,55.1,38.2,29.95,SE,135,7.6,7.6,53,0.00,,,0.00,WUHU216HW,2013-04-21 17:40:00,
2013-04-21 13:00:00,56.0,39.1,29.93,NE,45,2.9,2.9,53,0.00,,,0.00,WUHU216HW,2013-04-21 18:00:00,
2013-04-21 13:05:00,56.0,39.1,29.93,NE,45,2.9,2.9,53,0.00,,,0.00,WUHU216HW,2013-04-21 18:05:00,
2013-04-21 13:30:00,56.9,40.0,29.92,SE,135,8.1,8.1,53,0.00,,,0.00,WUHU216HW,2013-04-21 18:30:00,
2013-04-21 13:35:00,56.9,40.0,29.92,SE,135,8.1,8.1,53,0.00,,,0.00,WUHU216HW,2013-04-21 18:35:00,
2013-04-21 14:00:00,58.0,40.5,29.91,SSE,158,5.4,5.4,52,0.00,,,0.00,WUHU216HW,2013-04-21 19:00:00,
2013-04-21 14:05:00,58.0,40.5,29.91,SSE,158,5.4,5.4,52,0.00,,,0.00,WUHU216HW,2013-04-21 19:05:00,
2013-04-21 14:30:00,58.9,40.8,29.90,SE,135,6.9,6.9,51,0.00,,,0.00,WUHU216HW,2013-04-21 19:30:00,
2013-04-21 14:35:00,58.9,40.8,29.90,SE,135,6.9,6.9,51,0.00,,,0.00,WUHU216HW,2013-04-21 19:35:00,
2013-04-21 15:00:00,59.8,41.6,29.88,SE,135,6.3,6.3,51,0.00,,,0.00,WUHU216HW,2013-04-21 20:00:00,
2013-04-21 15:05:00,59.8,41.6,29.88,SE,135,6.3,6.3,51,0.00,,,0.00,WUHU216HW,2013-04-21 20:05:00,
2013-04-21 15:30:00,60.3,42.1,29.87,SSE,158,4.7,4.7,51,0.00,,,0.00,WUHU216HW,2013-04-21 20:30:00,
2013-04-21 15:35:00,60.3,42.1,29.87,SSE,158,4.7,4.7,51,0.00,,,0.00,WUHU216HW,2013-04-21 20:35:00,
2013-04-21 16:00:00,60.5,41.2,29.86,SE,135,4.9,4.9,49,0.00,,,0.00,WUHU216HW,2013-04-21 21:00:00,
2013-04-21 16:05:00,60.5,41.2,29.86,SE,135,4.9,4.9,49,0.00,,,0.00,WUHU216HW,2013-04-21 21:05:00,
2013-04-21 16:30:00,61.2,42.5,29.85,SE,135,3.4,3.4,50,0.00,,,0.00,WUHU216HW,2013-04-21 21:30:00,
2013-04-21 16:35:00,61.2,42.5,29.85,SE,135,3.4,3.4,50,0.00,,,0.00,WUHU216HW,2013-04-21 21:35:00,
2013-04-21 17:00:00,61.2,41.9,29.84,SE,135,2.5,2.5,49,0.00,,,0.00,WUHU216HW,2013-04-21 22:00:00,
2013-04-21 17:05:00,61.2,41.9,29.84,SE,135,2.5,2.5,49,0.00,,,0.00,WUHU216HW,2013-04-21 22:05:00,
2013-04-21 17:30:00,60.8,41.6,29.84,SSE,158,3.6,3.6,49,0.00,,,0.00,WUHU216HW,2013-04-21 22:30:00,
2013-04-21 17:35:00,60.8,41.6,29.84,SSE,158,3.6,3.6,49,0.00,,,0.00,WUHU216HW,2013-04-21 22:35:00,
2013-04-21 18:00:00,59.9,40.8,29.84,ENE,68,7.6,7.6,49,0.00,,,0.00,WUHU216HW,2013-04-21 23:00:00,
2013-04-21 18:05:00,59.9,40.8,29.84,ENE,68,7.6,7.6,49,0.00,,,0.00,WUHU216HW,2013-04-21 23:05:00,
2013-04-21 18:30:00,58.3,40.8,29.84,SE,135,4.3,4.3,52,0.00,,,0.00,WUHU216HW,2013-04-21 23:30:00,
2013-04-21 18:35:00,58.3,40.8,29.84,SE,135,4.3,4.3,52,0.00,,,0.00,WUHU216HW,2013-04-21 23:35:00,
2013-04-21 19:00:00,56.9,40.4,29.83,SE,135,2.0,2.0,54,0.00,,,0.00,WUHU216HW,2013-04-22 00:00:00,
2013-04-21 19:05:00,56.9,40.4,29.83,SE,135,2.0,2.0,54,0.00,,,0.00,WUHU216HW,2013-04-22 00:05:00,
2013-04-21 19:30:00,55.6,39.6,29.83,ESE,113,2.5,2.5,55,0.00,,,0.00,WUHU216HW,2013-04-22 00:30:00,
2013-04-21 19:35:00,55.6,39.6,29.83,ESE,113,2.5,2.5,55,0.00,,,0.00,WUHU216HW,2013-04-22 00:35:00,
2013-04-21 20:00:00,54.2,39.3,29.84,SSE,158,1.8,1.8,57,0.00,,,0.00,WUHU216HW,2013-04-22 01:00:00,
2013-04-21 20:05:00,54.2,39.3,29.84,SSE,158,1.8,1.8,57,0.00,,,0.00,WUHU216HW,2013-04-22 01:05:00,
2013-04-21 20:30:00,52.7,38.8,29.84,SE,135,3.1,3.1,59,0.00,,,0.00,WUHU216HW,2013-04-22 01:30:00,
2013-04-21 20:35:00,52.7,38.8,29.84,SE,135,3.1,3.1,59,0.00,,,0.00,WUHU216HW,2013-04-22 01:35:00,
2013-04-21 21:00:00,52.2,39.2,29.84,East,90,2.5,2.5,61,0.00,,,0.00,WUHU216HW,2013-04-22 02:00:00,
2013-04-21 21:05:00,52.2,39.2,29.84,East,90,2.5,2.5,61,0.00,,,0.00,WUHU216HW,2013-04-22 02:05:00,
2013-04-21 21:30:00,51.5,38.0,29.84,SE,135,3.4,3.4,60,0.00,,,0.00,WUHU216HW,2013-04-22 02:30:00,
2013-04-21 21:35:00,51.5,38.0,29.84,SE,135,3.4,3.4,60,0.00,,,0.00,WUHU216HW,2013-04-22 02:35:00,
2013-04-21 22:00:00,50.9,38.0,29.84,SSE,158,2.2,2.2,61,0.00,,,0.00,WUHU216HW,2013-04-22 03:00:00,
2013-04-21 22:05:00,50.9,38.0,29.84,SSE,158,2.2,2.2,61,0.00,,,0.00,WUHU216HW,2013-04-22 03:05:00,
2013-04-21 22:30:00,50.8,37.8,29.85,SE,135,2.7,2.7,61,0.00,,,0.00,WUHU216HW,2013-04-22 03:30:00,
2013-04-21 22:35:00,50.8,37.8,29.85,SE,135,2.7,2.7,61,0.00,,,0.00,WUHU216HW,2013-04-22 03:35:00,
2013-04-21 23:00:00,50.0,37.9,29.84,SE,135,3.4,3.4,63,0.00,,,0.00,WUHU216HW,2013-04-22 04:00:00,
2013-04-21 23:01:00,50.0,37.9,29.84,SE,135,3.4,3.4,63,0.00,,,0.00,WUHU216HW,2013-04-22 04:01:00,
2013-04-21 23:06:00,50.0,37.9,29.84,SE,135,3.4,3.4,63,0.00,,,0.00,WUHU216HW,2013-04-22 04:06:00,
2013-04-21 23:30:00,49.7,37.5,29.85,SSE,158,2.5,2.5,63,0.00,,,0.00,WUHU216HW,2013-04-22 04:30:00,
2013-04-21 23:35:00,49.7,37.5,29.85,SSE,158,2.5,2.5,63,0.00,,,0.00,WUHU216HW,2013-04-22 04:35:00,